Jenks, OK

4:09 PM CST on February 24, 2017 (GMT -0600)
Jones Jr.

Weather History for KRVS - October, 2011

Change the Weather History Date:

Monday, October 17, 2011

  Actual Average (KTUL) Record (KTUL)
Temperature  
Mean Temperature 68 °F -  
Max Temperature 87 °F 72 °F 90 °F (1947)
Min Temperature 50 °F 49 °F 30 °F (1976)
Cooling Degree Days 4    
Growing Degree Days 18 (Base 50)    
Moisture  
Dew Point 46 °F    
Average Humidity 54    
Maximum Humidity 77    
Minimum Humidity 33    
Precipitation  
Precipitation 0.02 in - - ()
Sea Level Pressure  
Sea Level Pressure 29.83 in    
Wind  
Wind Speed 8 mph (North)    
Max Wind Speed 18 mph    
Max Gust Speed 34 mph    
Visibility 10 miles    
Events Rain , Thunderstorm    
Averages and records for this station are not official NWS values.
T = Trace of Precipitation, MM = Missing Value Source: NWS Daily Summary

Daily Weather History Graph

Daily Weather History Graph

Search for Another Location

Airport or City:

Trip Planner

Search our weather history database for the weather conditions in past years. The results will help you decide how hot, cold, wet, or windy it might be!

Date:

Astronomy

Oct. 17, 2011 Rise Set
Actual Time 7:32 AM CDT 6:45 PM CDT
Civil Twilight 7:06 AM CDT 7:11 PM CDT
Nautical Twilight 6:36 AM CDT 7:41 PM CDT
Astronomical Twilight 6:06 AM CDT 8:11 PM CDT
Moon 10:35 PM CDT (10/17) 12:31 PM CDT (10/17)
Length of Visible Light 12h 05m
Length of Day
11h 13m
Waning Gibbous, 74% of the Moon is Illuminated
Oct 17
Waning Gibbous
Oct 19
Last Quarter
Oct 26
New
Nov 2
First Quarter
Nov 10
Full

Hourly Weather History & Observations

Time (CDT) Temp. Heat Index Dew Point Humidity Pressure Visibility Wind Dir Wind Speed Gust Speed Precip Events Conditions
12:53 AM 63.0 °F - 45.0 °F 52% 29.95 in 10.0 mi NE 8.1 mph - N/A   Clear
1:53 AM 61.0 °F - 45.0 °F 56% 29.94 in 10.0 mi Calm Calm - N/A   Clear
3:53 AM 57.0 °F - 45.0 °F 64% 29.91 in 10.0 mi NNE 4.6 mph - N/A   Clear
5:53 AM 55.0 °F - 45.0 °F 69% 29.90 in 10.0 mi NNE 3.5 mph - N/A   Clear
6:53 AM 53.1 °F - 46.0 °F 77% 29.88 in 10.0 mi Calm Calm - N/A   Clear
7:53 AM 54.0 °F - 46.0 °F 75% 29.86 in 10.0 mi Calm Calm - N/A   Clear
9:53 AM 68.0 °F - 52.0 °F 56% 29.84 in 10.0 mi SSE 3.5 mph - N/A   Clear
10:53 AM 73.9 °F - 55.0 °F 52% 29.81 in 10.0 mi South 9.2 mph - N/A   Clear
11:53 AM 78.1 °F - 55.9 °F 46% 29.79 in 10.0 mi SSW 11.5 mph - N/A   Clear
12:53 PM 82.0 °F 81.7 °F 57.0 °F 42% 29.75 in 10.0 mi South 9.2 mph - N/A   Clear
2:53 PM 86.0 °F 84.9 °F 57.0 °F 37% 29.66 in 10.0 mi SW 10.4 mph 16.1 mph N/A   Clear
3:53 PM 87.1 °F 85.3 °F 55.0 °F 33% 29.65 in 10.0 mi SSW 8.1 mph - N/A   Clear
4:53 PM 84.9 °F 84.4 °F 59.0 °F 41% 29.66 in 10.0 mi Calm Calm - N/A   Clear
5:53 PM 75.0 °F - 52.0 °F 44% 29.71 in 10.0 mi NNE 15.0 mph 28.8 mph N/A   Mostly Cloudy
7:53 PM 64.0 °F - 37.0 °F 37% 29.82 in 10.0 mi North 16.1 mph 34.5 mph N/A   Mostly Cloudy
8:00 PM 64.4 °F - 37.4 °F 37% 29.79 in 10.0 mi North 13.8 mph 34.5 mph 0.00 in Rain , Thunderstorm Light Thunderstorms and Rain
8:53 PM 57.9 °F - 39.9 °F 51% 29.84 in 10.0 mi North 11.5 mph 26.5 mph 0.02 in   Mostly Cloudy
9:18 PM 57.2 °F - 39.2 °F 51% 29.85 in 10.0 mi North 16.1 mph 28.8 mph N/A Thunderstorm Overcast
9:33 PM 55.4 °F - 39.2 °F 54% 29.83 in 10.0 mi North 10.4 mph 24.2 mph N/A   Overcast
9:50 PM 53.6 °F - 41.0 °F 62% 29.84 in 10.0 mi North 11.5 mph 21.9 mph 0.00 in Rain , Thunderstorm Light Rain
9:53 PM 53.1 °F - 41.0 °F 64% 29.88 in 10.0 mi North 16.1 mph 33.4 mph 0.00 in Thunderstorm Overcast
10:09 PM 51.8 °F - 41.0 °F 67% 29.86 in 10.0 mi North 13.8 mph 31.1 mph N/A   Overcast
10:53 PM 50.0 °F - 39.9 °F 68% 29.91 in 10.0 mi North 17.3 mph 28.8 mph N/A   Overcast
11:50 PM 51.8 °F - 37.4 °F 58% 29.92 in 10.0 mi North 16.1 mph 28.8 mph N/A   Overcast
11:53 PM 52.0 °F - 37.0 °F 57% 29.95 in 10.0 mi North 18.4 mph 29.9 mph N/A   Overcast